Regional Weather Roundup
Issued by NWS

Home | Current Version | Previous Version | Graphics & Text | Print | Product List | Glossary On
Versions: 1 2 3 4 5 6 7 8 9 10 11 12 13 14 15 16 17 18 19 20 21 22 23 24 25 26 27 28 29 30 31 32 33 34 35 36 37 38 39 40 41 42 43 44 45 46 47 48 49 50
000
ASUS43 KMKX 220411
RWRWI

WISCONSIN REGIONAL WEATHER ROUNDUP
NATIONAL WEATHER SERVICE MILWAUKEE/SULLIVAN WI
1100 PM CDT MON AUG 21 2017

NOTE: "FAIR" INDICATES FEW OR NO CLOUDS BELOW 12,000 FEET WITH NO
SIGNIFICANT WEATHER AND/OR OBSTRUCTIONS TO VISIBILITY.

WIZ001-002-006>008-014>016-023>028-220500-
NORTHWEST WISCONSIN

CITY           SKY/WX    TMP DP  RH WIND       PRES   REMARKS
SUPERIOR ARPT  HVY RAIN  59  59  99 NE8       29.83S
ASHLAND        LGT RAIN  60  57  89 NE3       29.81F FOG
HAYWARD        CLOUDY    68  63  84 VRB7      29.83S
SIREN          CLOUDY    67  63  84 W8        29.83F
CUMBERLAND     CLOUDY    64  63  94 SW3       29.85S
RICE LAKE      MOCLDY    65  63  94 S5        29.86S
CHETEK         MOCLDY    65  64  95 MISG      29.85F
LADYSMITH      MOCLDY    67  64  90 SW6       29.87S
EAU CLAIRE     MOCLDY    67  63  87 SW7       29.85F
MENOMONIE      MOCLDY    66  64  93 S6        29.87S
NEW RICHMOND   CLOUDY    68  64  86 W10G17    29.86R
OSCEOLA        CLOUDY    68  68 100 W9        29.87S
$$

WIZ003>005-009-010-017-018-220500-
NORTH CENTRAL WISCONSIN

CITY           SKY/WX    TMP DP  RH WIND       PRES   REMARKS
MANITOWISH WTR MOCLDY    66  66 100 SW6       29.82F
ARBOR VITAE    PTCLDY    67  66  95 SW3       29.83F
WOODRUFF       PTCLDY    67  66  95 SW3       29.83F
RHINELANDER    CLOUDY    67  67 100 SW12      29.84F
EAGLE RIVER    CLOUDY    66  66 100 SW7       29.82F
LAND O LAKES   CLOUDY    66  66 100 CALM      29.84F
PHILLIPS       CLOUDY    67  67  98 SW6       29.84F
TOMAHAWK         N/A     65  64  96 CALM      29.85F
MEDFORD        CLOUDY    65  64  94 SW6       29.86F
MERRILL        CLOUDY    66  66 100 W5        29.85F
$$

WIZ029-030-035-036-043>047-220500-
CENTRAL WISCONSIN

CITY           SKY/WX    TMP DP  RH WIND       PRES   REMARKS
WAUSAU         CLOUDY    67  63  87 SW5       29.82F
MOSINEE        PTCLDY    64  63  94 SW5       29.85F
MARSHFIELD     CLOUDY    66  61  84 W8        29.85F
STEVENS POINT  MOCLDY    64  64 100 CALM      29.86F
WAUPACA        CLOUDY    71  68  89 W7        29.84R
WAUTOMA        MOCLDY    68  66  93 SW6       29.85R
WISC RAPIDS    CLOUDY    66  65  96 W5        29.87F
CAMP DOUGLAS   CLEAR     64  64 100 W6        29.87R
$$

WIZ011>013-019>022-031-037>040-048>050-220500-
NORTHEAST WISCONSIN

CITY           SKY/WX    TMP DP  RH WIND       PRES   REMARKS
ANTIGO         CLOUDY    66  65  97 SW7       29.85F
SHAWANO        RAIN      73  65  76 SW6       29.84R
OCONTO         CLOUDY    72  67  85 CALM      29.79F
STURGEON BAY   MOCLDY    71  69  93 S8        29.81F
GREEN BAY      CLOUDY    72  71  97 CALM      29.80F
MANITOWOC        N/A    N/A N/A N/A MISG        N/A
APPLETON       PTCLDY    72  64  78 SW6       29.82F
CLINTONVILLE   CLOUDY    72  63  73 NW12      29.85R
OSHKOSH        LGT RAIN  72  66  81 S6        29.81F
$$

WIZ032>034-041-042-053>061-220500-
SOUTHWEST WISCONSIN

CITY           SKY/WX    TMP DP  RH WIND       PRES   REMARKS
LA CROSSE      CLOUDY    69  66  90 CALM      29.89R
SPARTA         CLEAR     62  61  99 SW3       29.90S
VIROQUA        CLOUDY    63  63 100 CALM      29.92R
BOSCOBEL       CLOUDY    67  65  93 CALM      29.86R
PRAIRIE DU CHI MOCLDY    65  63  91 W6        29.88R
PLATTEVILLE    CLOUDY    70  70 100 S8        29.87R
$$

WIZ056-057-062-063-064-067-068-220500-
SOUTH CENTRAL WISCONSIN

CITY           SKY/WX    TMP DP  RH WIND       PRES   REMARKS
REEDSBURG      CLOUDY    68  68 100 NW7       29.87R
BARABOO/DELLS  CLOUDY    69  65  84 W8        29.87R
LONE ROCK      CLOUDY    69  67  93 NW7       29.83R
MINERAL POINT  CLOUDY    70  70 100 S13       29.86R
MADISON        CLOUDY    72  68  87 S12       29.81F
MIDDLETON      CLOUDY    72  71  96 S5        29.82F
WATERTOWN      CLOUDY    71  71 100 S8        29.83F
MONROE         CLOUDY    70  68  94 S10       29.87F
JANESVILLE     CLOUDY    73  72  94 S8        29.86F
$$

WIZ051-052-058>065-066-070>072-220500-
SOUTHEAST WISCONSIN

CITY           SKY/WX    TMP DP  RH WIND       PRES   REMARKS
MILWAUKEE      CLOUDY    76  71  85 SW15      29.87F
WAUKESHA       CLOUDY    70  64  83 S6        29.87F
MILWAUKEE/TIMM CLOUDY    72  64  78 S10       29.86F
RACINE         CLOUDY    76  70  82 SW8       29.89F
KENOSHA        CLOUDY    75  68  78 SW12      29.89F
FOND DU LAC    CLOUDY    73  65  75 S8        29.82F
SHEBOYGAN      CLOUDY    70  69  97 SW6       29.83F
WEST BEND      CLOUDY    72  68  88 SW9       29.84F
JUNEAU         CLOUDY    71  67  87 S10G16    29.84F
$$

LSZ147-162-220500-
LAKE SUPERIOR

STATION/POSITION TIME  TEMP    WIND        PRES    WAVE
                       AIR SEA DIR/SP/G            HT/PER
                 (UTC) (F)     (DEG/KT/KT) (MB)    (FT/S)
W MID LAKE BUOY  0350   59 60  350/  8/ 10 1009.4F   0
DEVILS ISLAND    0400   59     360/ 18/ 20 1009.7S
PORT WING        0207   63      50/ 18     1009.8
SAXON HARBOR     0330   65      10/  9/ 14 1009.1S
$$

LMZ867-665-643>646-220500-
LAKE MICHIGAN

STATION/POSITION TIME  TEMP    WIND        PRES    WAVE
                       AIR SEA DIR/SP/G            HT/PER
                 (UTC) (F)     (DEG/KT/KT) (MB)    (FT/S)
S GREEN BAY BUOY 0400   73 72  190/ 10/ 12 1008.6
N MID LAKE BUOY  0350   70 68  200/ 12/ 14 1009.6F   2/ 4
NORTHPORT PIER   0240   71     170/  5/  9 1009.8F
KEWAUNEE LAKESHO 0348   67     190/  6/  9 1008.8F
SHEBOYGAN LAKESH 0400   73     210/ 12/ 14 1009.3F
PORT WASHINGTON  0340   75     220/  5/  9 1011.9F
ATWATER BUOY     0309   75 70  220/ 10/ 12 1012.1F
MILWAUKEE LAKESH 0350   75     220/ 14/ 16   N/A
S MID LAKE BUOY  0350   74 72  220/ 12/ 12 1012.0F   1/ 3
KENOSHA   LAKESH 0400   77     230/ 11/ 14 1011.5
$$

TC  - TEMPERATURE IN CELSIUS
VSB - VISIBILITY IN STATUTE MILES
WCI - WIND CHILL INDEX
HX  - HEAT INDEX





USA.gov is the U.S. government's official web portal to all federal, state and local government web resources and services.